TimeMDT,TemperatureF,Dew PointF,Humidity,Sea Level PressureIn,VisibilityMPH,Wind Direction,Wind SpeedMPH,Gust SpeedMPH,PrecipitationIn,Events,Conditions,WindDirDegrees,DateUTC
12:15 AM,60.8,55.4,82,30.17,10.0,East,5.8,-,N/A,,Mostly Cloudy,100,2012-09-02 06:15:00
12:55 AM,59.0,53.6,82,30.17,10.0,Calm,Calm,-,N/A,,Clear,0,2012-09-02 06:55:00
1:15 AM,57.2,55.4,94,30.16,10.0,East,3.5,-,N/A,,Clear,100,2012-09-02 07:15:00
2:15 AM,59.0,53.6,82,30.16,10.0,NW,6.9,-,N/A,,Mostly Cloudy,320,2012-09-02 08:15:00
2:35 AM,60.8,53.6,77,30.16,10.0,NW,9.2,-,N/A,,Mostly Cloudy,310,2012-09-02 08:35:00
2:55 AM,62.6,51.8,68,30.15,10.0,NNW,9.2,-,N/A,,Overcast,330,2012-09-02 08:55:00
3:15 AM,60.8,51.8,72,30.16,10.0,North,9.2,-,N/A,,Overcast,10,2012-09-02 09:15:00
3:35 AM,60.8,51.8,72,30.16,10.0,NNW,8.1,-,N/A,,Overcast,340,2012-09-02 09:35:00
4:15 AM,60.8,53.6,77,30.15,10.0,North,4.6,-,N/A,,Overcast,360,2012-09-02 10:15:00
4:35 AM,57.2,51.8,82,30.16,10.0,Calm,Calm,-,N/A,,Scattered Clouds,0,2012-09-02 10:35:00
4:55 AM,57.2,53.6,88,30.16,10.0,Calm,Calm,-,N/A,,Mostly Cloudy,0,2012-09-02 10:55:00
5:15 AM,57.2,51.8,82,30.16,10.0,Calm,Calm,-,N/A,,Mostly Cloudy,0,2012-09-02 11:15:00
5:55 AM,59.0,48.2,67,30.16,10.0,WNW,5.8,-,N/A,,Clear,300,2012-09-02 11:55:00
6:15 AM,57.2,48.2,72,30.16,10.0,Calm,Calm,-,N/A,,Clear,0,2012-09-02 12:15:00
6:35 AM,57.2,50.0,77,30.17,10.0,SE,4.6,-,N/A,,Clear,140,2012-09-02 12:35:00
7:50 AM,55.4,53.6,94,30.19,15.0,Calm,Calm,-,N/A,,Partly Cloudy,0,2012-09-02 13:50:00
7:53 AM,55.4,50.0,82,30.17,15.0,Calm,Calm,-,N/A,,Partly Cloudy,0,2012-09-02 13:53:00
8:52 AM,62.6,53.6,72,30.19,15.0,East,3.5,-,N/A,,Partly Cloudy,100,2012-09-02 14:52:00
9:55 AM,66.2,55.4,68,30.21,15.0,East,3.5,-,N/A,,Partly Cloudy,100,2012-09-02 15:55:00
10:49 AM,69.8,53.6,56,30.21,15.0,South,3.5,-,N/A,,Partly Cloudy,180,2012-09-02 16:49:00
11:52 AM,73.4,53.6,50,30.19,15.0,SSW,6.9,-,N/A,,Partly Cloudy,210,2012-09-02 17:52:00
12:56 PM,75.2,55.4,50,30.17,15.0,WSW,15.0,-,N/A,,Partly Cloudy,240,2012-09-02 18:56:00
1:50 PM,77.0,55.4,47,30.15,15.0,Variable,5.8,-,N/A,,Scattered Clouds,0,2012-09-02 19:50:00
2:49 PM,82.4,51.8,35,30.13,15.0,Calm,Calm,-,N/A,,Partly Cloudy,0,2012-09-02 20:49:00
3:50 PM,84.2,48.2,29,30.10,15.0,Variable,5.8,-,N/A,,Scattered Clouds,0,2012-09-02 21:50:00
4:50 PM,84.2,44.6,25,30.09,15.0,Variable,5.8,-,N/A,,Scattered Clouds,0,2012-09-02 22:50:00
5:50 PM,80.6,50.0,34,30.07,15.0,WNW,9.2,-,N/A,,Partly Cloudy,300,2012-09-02 23:50:00
7:50 PM,75.2,57.2,53,30.07,15.0,NW,11.5,-,N/A,,Partly Cloudy,310,2012-09-03 01:50:00
8:50 PM,71.6,57.2,60,30.09,15.0,WNW,11.5,-,N/A,,Clear,300,2012-09-03 02:50:00
9:35 PM,71.6,57.2,60,30.10,10.0,NW,12.7,-,N/A,,Clear,310,2012-09-03 03:35:00
9:55 PM,69.8,59.0,68,30.11,10.0,North,3.5,-,N/A,,Clear,360,2012-09-03 03:55:00
10:15 PM,69.8,55.4,60,30.11,10.0,WNW,5.8,-,N/A,,Clear,300,2012-09-03 04:15:00
10:35 PM,69.8,55.4,60,30.11,10.0,SE,6.9,-,N/A,,Clear,140,2012-09-03 04:35:00
10:55 PM,66.2,51.8,60,30.12,10.0,SSE,6.9,-,N/A,,Clear,150,2012-09-03 04:55:00
11:15 PM,66.2,53.6,64,30.12,10.0,SE,6.9,-,N/A,,Clear,140,2012-09-03 05:15:00
11:35 PM,64.4,53.6,68,30.12,10.0,SE,6.9,-,N/A,,Clear,140,2012-09-03 05:35:00
11:55 PM,64.4,51.8,64,30.12,10.0,East,5.8,-,N/A,,Clear,100,2012-09-03 05:55:00